Vertical_Velocity
-2 -1 -2 -3 3 1 -1 0 -7 7 3 3 7 10 7 -1 -2 -7 -3 -4 -3 -4 0 3 0 -3 -1 3 0 -2 2 -0 -2 -2 -0 -2 -3 3 -4 -2 -1 -1 0 -0 -2 1 4 0 1
-3 -2 -1 -1 0 -0 1 5 3 -1 1 5 10 3 5 0 -1 -5 -1 -5 -6 -4 -2 -4 1 3 3 1 -1 -2 1 -1 -2 -1 1 -1 -0 -2 -2 -3 -1 -0 -0 3 -1 -1 3 -2 1
-2 -1 0 1 -2 2 -4 -1 -6 -4 -6 -4 1 3 -1 -3 -4 1 -2 -2 -4 -3 -2 -3 1 2 -3 -1 -2 0 -1 -1 -1 -3 0 2 -2 2 -3 -1 -3 -5 1 -1 2 2 2 0 0
2 -0 3 1 3 7 1 5 12 10 8 -6 -8 -2 0 0 -0 3 -2 -1 -1 -1 -1 1 0 -4 -3 2 5 3 -4 -3 1 -1 2 -1 2 1 -0 -1 -3 -2 -5 -5 3 4 4 0 2
1 0 3 1 -4 -4 6 1 6 -2 -2 -2 6 -1 2 0 2 2 -1 -4 -2 2 4 5 2 -2 0 -6 -9 -4 2 4 1 3 0 -1 0 1 -1 0 -3 -2 -2 -1 -5 1 3 1 -1
0 1 1 -6 -3 5 12 -3 3 -3 -4 -0 -1 -4 -2 -1 2 1 -0 -0 -2 -4 -3 -2 -2 -1 -8 -0 1 1 2 2 1 1 -1 1 1 -1 -1 -1 -0 -2 -3 -2 -1 -3 -2 -0 1
1 -0 -1 4 -6 2 4 9 2 -2 -2 -2 1 -0 2 -2 -1 -2 0 2 3 0 1 2 4 4 4 3 2 1 0 -1 -0 1 1 3 -1 1 0 -0 -2 -2 0 -2 -0 1 -2 -2 -1
1 1 2 -1 -1 4 7 3 -0 5 -1 -3 -0 2 -1 -3 -2 -2 -1 2 7 3 2 1 4 5 4 1 -2 -0 -2 1 2 -0 2 -0 1 -2 1 1 -0 -3 -2 -1 -0 0 2 1 -3
1 2 1 1 2 0 3 -0 4 3 0 -3 -2 -3 -1 -2 -1 1 2 5 6 6 -3 4 3 1 2 1 2 -3 0 -1 -0 0 -1 -1 -1 -0 -2 -1 -1 -0 -2 -3 -1 1 1 -0 -1
-3 1 -0 -0 6 -1 -2 6 2 -2 -2 2 -1 -2 0 1 -2 0 3 9 10 9 -0 6 4 2 0 3 0 1 2 -2 -1 -2 -0 -0 -1 -2 -2 -0 -2 -0 -3 -1 -1 1 2 1 1
1 1 0 1 -3 -1 -0 -5 -3 -5 0 1 4 -1 -4 -2 -2 2 2 3 4 5 3 5 3 4 2 4 0 0 0 -2 -2 -1 -0 0 -1 -2 -3 -2 -3 -1 -1 -3 -3 -1 1 3 -0
-3 3 -0 4 2 1 -1 2 -2 -0 -4 1 2 -4 -4 -4 -3 -2 2 6 3 0 4 4 2 3 1 2 -1 -2 -3 -3 -4 -5 -3 -3 0 1 1 -1 -4 -2 -3 -2 -4 -3 1 2 1
-2 1 0 5 -1 4 8 7 0 -3 1 3 0 -2 -2 -5 0 2 1 3 2 2 2 2 0 0 2 0 0 -2 -5 -4 -3 -2 -1 -0 -1 -3 -0 -0 -1 -1 -1 -4 -2 -0 -3 0 0
-5 -5 -1 -1 5 -0 -1 -1 3 -2 3 -1 -2 1 6 6 4 2 -3 -2 -1 -1 2 2 0 2 2 -1 -1 -2 -2 -3 -3 -4 -4 -2 -2 -3 -4 -4 -2 1 -0 -1 -3 -6 -4 -3 -1
1 -7 -1 2 3 -4 8 1 -8 -0 0 4 2 -2 -4 -2 1 1 1 3 1 -1 -3 -2 0 2 -1 -3 -2 -2 -2 -2 -2 -5 -3 -2 -0 2 -1 -3 -6 -6 -2 2 -0 0 -5 -5 -3
-3 -4 -5 15 0 5 10 -19 10 -2 -0 3 1 -1 0 -0 -3 -8 -3 -3 3 4 2 -1 -4 -5 -2 -2 -3 -3 -1 -2 -3 -3 -4 -3 -3 -1 -1 1 -1 -3 -1 -5 -4 -1 -1 -3 -6
-0 -5 -2 -19 -1 -0 7 -5 2 4 -0 -4 -2 2 4 3 2 2 2 -1 -4 -5 -2 -1 -0 -0 -2 -2 -3 -2 -3 -2 -1 -1 -2 -2 -1 -2 -0 -2 -0 -4 -2 -2 -5 -3 -7 -1 1
1 1 -4 -0 -2 3 13 3 2 -2 -5 -1 3 3 1 -2 2 -0 -1 -3 -3 -3 -1 -1 -0 -1 -0 -3 -2 -4 -4 -4 -2 -3 -1 -2 -2 -2 -2 1 -3 -2 -1 -1 -4 -6 -4 -6 -6
1 -4 -4 7 4 1 -4 -2 -3 3 -2 -1 -1 1 0 -1 -2 2 1 -1 -3 -0 0 -0 -4 -4 -3 -5 0 0 0 -1 -2 -2 -2 -0 -1 -1 -2 -2 -4 -3 -3 -2 -4 -2 -2 -2 -4
3 6 -4 -13 5 9 0 2 2 -1 -6 3 4 -2 -4 -2 6 -0 -1 -1 -2 -3 -4 -3 -2 -1 -4 -3 -5 -4 -2 -2 -4 -4 -4 -4 -0 -4 -3 -1 -1 -4 -1 -3 -3 -6 -1 -0 -1
2 4 2 -0 -15 -6 -2 4 1 2 12 5 7 7 2 -3 -6 2 -2 -4 -2 -1 -4 -2 -1 1 -4 -5 -3 -6 -5 -5 -3 -2 0 0 -2 -4 -4 -2 -5 2 -7 -4 -2 -3 -4 1 1
3 -1 -1 -1 1 -3 1 -13 -7 9 0 1 2 0 -1 1 -0 -1 1 1 0 -5 -3 3 -0 -1 -1 0 -4 -1 0 -0 -1 -2 0 -1 -3 -3 -3 -5 3 -3 -9 -4 -4 -1 -2 -3 3
-11 2 -0 3 3 6 -0 2 5 1 -4 -5 -3 6 2 4 5 2 3 1 -3 -3 -2 0 -2 -5 1 -2 -4 -2 -2 -2 -2 -0 -2 0 -4 -1 -6 -1 1 -6 -6 -5 -2 -1 -1 -3 -1
10 7 5 4 3 5 -5 6 -7 0 -1 0 9 11 2 3 5 1 4 -1 -3 -0 3 -2 -1 -3 -1 -3 -4 -5 1 -0 -0 -2 2 -0 -1 -2 -5 1 -3 -6 -8 -2 -2 -2 -1 -1 -1
2 2 -3 -3 1 -6 3 11 -8 -6 5 -4 -7 -6 -6 -8 -1 2 0 3 6 3 -1 -2 -4 -6 -4 -0 -2 -2 -3 -1 -1 -1 1 -0 0 -1 1 -2 -2 -1 -5 -2 -2 -2 -2 -2 -1
-3 -1 -5 -3 -2 -3 -1 1 -3 3 1 7 10 10 9 9 -3 -3 0 4 -1 -3 -3 -4 -4 -2 -3 -2 2 0 -2 -1 -2 0 0 -1 -2 -5 -1 -4 -4 -3 -6 -2 -1 -3 -2 -2 -2
3 -1 2 7 1 1 -3 -1 1 -3 1 6 5 5 0 1 1 -1 5 -1 -4 -1 -2 -5 -4 -1 -2 -2 1 0 -2 -1 -2 -1 -0 -0 -4 -4 -1 -2 -2 -4 -4 -3 -0 -2 -2 -3 -3
6 4 1 3 -3 -0 -2 1 -4 -7 -5 -1 -0 -1 -0 1 -3 -5 -4 -3 1 -1 0 -5 -3 2 -0 -1 2 -0 -2 -2 0 -0 -1 -0 -3 -3 -1 -2 -1 -4 -2 1 -1 -1 -1 -2 -3
-0 0 -1 -3 1 -4 -2 -8 -4 -1 1 -1 -2 0 -2 -1 -1 -4 -4 0 -3 -1 -3 -5 -4 3 2 -0 2 -1 -1 0 -1 -2 -1 1 -1 -3 -3 -1 -1 -0 -2 -1 -1 -1 -3 -3 -4
6 -13 7 6 -4 3 0 -12 -4 -3 0 -0 3 -2 -5 -6 -4 -5 -0 -2 -2 0 -0 0 -1 1 1 2 -4 -0 0 1 -1 -1 2 1 -1 -2 -1 -2 -2 -1 -1 -3 2 0 0 -3 -3
Height
3151 3151 3151 3152 3156 3152 3151 3151 3151 3151 3152 3154 3156 3156 3154 3152 3154 3158 3157 3160 3162 3164 3167 3170 3170 3171 3171 3171 3171 3171 3170 3169 3169 3168 3166 3165 3165 3163 3160 3159 3158 3158 3158 3157 3155 3154 3153 3152 3151
3150 3150 3150 3150 3152 3152 3152 3150 3148 3149 3151 3153 3153 3152 3152 3152 3153 3153 3155 3158 3160 3164 3167 3168 3168 3169 3169 3170 3170 3169 3168 3168 3167 3166 3164 3164 3162 3159 3157 3156 3155 3154 3154 3154 3153 3152 3151 3150 3149
3149 3150 3150 3150 3150 3151 3151 3151 3147 3148 3150 3153 3153 3153 3151 3150 3153 3153 3155 3158 3160 3164 3166 3166 3168 3168 3169 3168 3168 3167 3166 3166 3164 3164 3161 3159 3158 3155 3153 3152 3151 3150 3150 3150 3150 3150 3149 3148 3147
3149 3149 3150 3149 3149 3151 3150 3150 3151 3149 3150 3152 3153 3152 3151 3149 3152 3154 3155 3156 3159 3162 3164 3166 3166 3167 3167 3166 3166 3164 3163 3162 3161 3159 3156 3154 3153 3150 3148 3148 3146 3145 3145 3145 3145 3146 3145 3145 3144
3149 3148 3148 3148 3148 3148 3149 3148 3147 3148 3149 3150 3150 3151 3150 3150 3150 3152 3154 3156 3159 3161 3163 3163 3163 3164 3163 3164 3163 3162 3161 3158 3156 3154 3150 3148 3147 3145 3143 3143 3141 3141 3140 3140 3140 3140 3140 3141 3141
3148 3146 3147 3148 3148 3147 3147 3145 3145 3147 3147 3148 3149 3151 3150 3149 3150 3151 3153 3155 3156 3158 3159 3159 3160 3160 3160 3160 3158 3157 3155 3153 3152 3148 3145 3144 3141 3139 3138 3137 3136 3136 3136 3136 3135 3135 3134 3135 3136
3146 3145 3146 3146 3147 3148 3147 3144 3146 3146 3146 3148 3147 3148 3150 3147 3148 3149 3151 3153 3154 3155 3155 3155 3156 3155 3154 3155 3153 3152 3150 3148 3146 3144 3141 3139 3137 3134 3133 3131 3130 3130 3129 3129 3129 3129 3129 3129 3129
3145 3145 3145 3144 3142 3145 3145 3145 3144 3145 3145 3147 3146 3146 3149 3149 3149 3149 3149 3151 3152 3152 3152 3152 3151 3151 3150 3149 3147 3146 3144 3142 3140 3137 3136 3133 3132 3130 3128 3127 3125 3123 3123 3122 3122 3123 3123 3123 3123
3144 3144 3144 3143 3142 3142 3144 3146 3144 3144 3144 3145 3144 3144 3145 3145 3147 3148 3149 3150 3151 3150 3150 3150 3148 3146 3145 3143 3141 3139 3138 3135 3133 3131 3129 3128 3126 3125 3123 3121 3120 3118 3117 3116 3114 3114 3115 3115 3116
3144 3144 3144 3144 3143 3143 3143 3143 3143 3144 3143 3143 3142 3141 3141 3141 3142 3145 3147 3149 3150 3148 3147 3146 3143 3141 3139 3137 3135 3133 3131 3129 3127 3125 3123 3121 3120 3118 3116 3115 3113 3112 3111 3109 3107 3106 3106 3107 3108
3143 3143 3142 3144 3144 3144 3143 3142 3141 3141 3141 3140 3139 3139 3138 3138 3138 3140 3142 3145 3145 3143 3142 3141 3138 3135 3133 3131 3129 3127 3125 3123 3121 3119 3117 3115 3113 3110 3108 3107 3106 3104 3103 3102 3101 3100 3098 3097 3098
3141 3142 3141 3140 3141 3142 3141 3139 3138 3138 3139 3138 3136 3136 3136 3136 3136 3136 3137 3139 3140 3137 3136 3135 3132 3130 3128 3125 3123 3122 3120 3118 3115 3112 3109 3107 3105 3103 3101 3098 3097 3095 3093 3092 3091 3091 3090 3089 3089
3139 3140 3139 3139 3138 3138 3138 3136 3136 3136 3136 3135 3134 3132 3132 3134 3135 3134 3133 3133 3133 3131 3130 3129 3126 3124 3123 3120 3117 3115 3113 3110 3107 3104 3100 3097 3095 3094 3092 3090 3088 3086 3084 3082 3081 3080 3081 3080 3080
3137 3136 3137 3136 3136 3135 3135 3134 3134 3134 3133 3132 3132 3131 3131 3132 3132 3132 3130 3129 3129 3127 3125 3124 3121 3119 3118 3114 3112 3110 3106 3103 3100 3097 3094 3090 3088 3085 3083 3081 3079 3076 3074 3072 3071 3070 3069 3069 3069
3134 3133 3133 3132 3132 3131 3132 3129 3129 3131 3129 3127 3126 3127 3129 3131 3130 3129 3126 3125 3123 3121 3121 3119 3117 3116 3113 3110 3108 3104 3101 3098 3095 3091 3088 3085 3081 3078 3074 3072 3070 3067 3065 3063 3060 3059 3057 3057 3057
3130 3130 3129 3129 3126 3127 3127 3125 3126 3127 3126 3124 3123 3123 3124 3126 3127 3126 3123 3121 3119 3116 3115 3114 3113 3112 3109 3107 3103 3100 3097 3093 3089 3085 3082 3078 3074 3070 3067 3063 3060 3058 3055 3052 3050 3048 3046 3044 3045
3126 3126 3125 3125 3123 3122 3122 3121 3123 3123 3122 3120 3120 3120 3120 3121 3122 3121 3119 3117 3115 3113 3112 3110 3108 3107 3105 3102 3099 3095 3091 3088 3084 3079 3076 3072 3068 3064 3060 3056 3052 3048 3044 3041 3038 3036 3033 3032 3031
3123 3122 3121 3121 3123 3121 3121 3120 3119 3119 3118 3116 3115 3115 3116 3119 3119 3117 3115 3113 3111 3109 3107 3105 3104 3103 3101 3098 3095 3090 3086 3082 3078 3074 3070 3066 3061 3058 3054 3049 3045 3039 3034 3029 3025 3021 3020 3018 3018
3118 3117 3116 3117 3119 3117 3115 3114 3114 3113 3112 3111 3108 3107 3111 3114 3115 3115 3112 3109 3107 3105 3104 3102 3101 3100 3098 3095 3092 3088 3083 3078 3074 3069 3064 3059 3054 3050 3046 3041 3036 3030 3024 3018 3013 3009 3005 3005 3003
3114 3112 3111 3111 3113 3110 3108 3107 3108 3108 3107 3103 3101 3101 3106 3108 3109 3110 3109 3106 3103 3102 3101 3098 3097 3095 3093 3090 3085 3082 3078 3072 3068 3063 3058 3054 3048 3043 3039 3034 3028 3022 3015 3008 3002 2997 2994 2993 2993
3107 3108 3107 3107 3106 3106 3102 3100 3104 3104 3101 3098 3096 3097 3099 3103 3105 3106 3105 3103 3102 3098 3097 3094 3092 3091 3087 3085 3079 3075 3071 3066 3063 3059 3054 3050 3044 3039 3033 3027 3022 3014 3005 2998 2993 2989 2986 2985 2985
3101 3104 3102 3102 3101 3099 3099 3094 3095 3096 3094 3093 3090 3090 3093 3095 3099 3101 3101 3099 3096 3095 3093 3089 3086 3084 3082 3079 3075 3071 3066 3063 3059 3054 3049 3045 3039 3033 3027 3022 3017 3004 2997 2990 2985 2981 2979 2976 2978
3094 3096 3097 3098 3096 3094 3093 3096 3086 3086 3086 3084 3086 3088 3091 3094 3095 3096 3096 3095 3093 3090 3087 3084 3082 3079 3077 3073 3069 3065 3061 3057 3054 3049 3045 3040 3035 3029 3023 3020 3008 2997 2993 2984 2978 2976 2974 2971 2971
3093 3093 3093 3092 3092 3088 3089 3091 3082 3082 3081 3079 3081 3084 3088 3092 3093 3093 3091 3090 3088 3084 3082 3079 3077 3074 3070 3066 3063 3059 3057 3052 3049 3044 3040 3035 3031 3024 3022 3014 3001 2992 2987 2981 2977 2974 2971 2968 2965
3088 3090 3090 3090 3088 3084 3083 3083 3079 3078 3079 3078 3082 3087 3089 3090 3090 3090 3088 3086 3082 3078 3077 3074 3071 3067 3064 3060 3057 3053 3051 3047 3044 3040 3036 3032 3026 3023 3018 3009 2997 2990 2986 2979 2974 2971 2967 2964 2961
3082 3084 3086 3085 3086 3084 3080 3078 3077 3077 3079 3080 3082 3084 3087 3087 3087 3085 3085 3083 3079 3076 3074 3070 3066 3061 3057 3054 3051 3047 3045 3042 3039 3035 3031 3027 3022 3019 3014 3005 2996 2990 2985 2978 2972 2968 2964 2960 2956
3076 3076 3080 3081 3079 3081 3081 3077 3075 3076 3078 3080 3080 3082 3082 3082 3081 3080 3080 3078 3075 3072 3068 3065 3062 3057 3051 3049 3046 3042 3040 3037 3034 3031 3027 3023 3018 3016 3010 3003 2997 2991 2984 2977 2970 2966 2961 2957 2953
3072 3073 3075 3075 3079 3079 3075 3075 3072 3073 3075 3077 3077 3078 3078 3078 3077 3076 3075 3073 3069 3067 3062 3059 3056 3052 3046 3044 3041 3038 3036 3034 3031 3027 3023 3020 3016 3012 3007 3002 2996 2991 2984 2977 2971 2965 2960 2956 2951
3069 3069 3071 3073 3074 3074 3076 3069 3069 3071 3074 3075 3074 3073 3071 3071 3071 3070 3069 3068 3065 3061 3057 3054 3050 3047 3043 3040 3037 3034 3032 3030 3027 3023 3020 3017 3013 3010 3005 2999 2994 2990 2986 2979 2972 2965 2959 2954 2949
3065 3066 3066 3067 3069 3068 3067 3064 3067 3069 3070 3069 3070 3069 3067 3066 3066 3065 3064 3061 3059 3055 3051 3048 3045 3041 3038 3036 3034 3031 3028 3026 3023 3020 3017 3014 3011 3007 3002 2997 2992 2988 2984 2979 2973 2967 2961 2956 2950